Hourly Data Report for October 06, 2014

All times are specified in Local Standard Time (LST). Add 1 hour to adjust for Daylight Saving Time where and when it is observed.

BAKER LAKE A
NUNAVUT

64°17'56.000" N
96°04'40.000" W
18.60 m
2300503
71926
YBK

Download Data

Hourly Data (October 2014)
Hourly Data Report for October 6, 2014
Temp Definition
°C
Dew Point Temp Definition
°C
Rel Hum Definition
%
Wind Dir Definition
10's deg

Wind Spd Definition
km/h
Visibility Definition
km
Stn Press Definition
kPa
Hmdx Definition


Wind Chill Definition


Weather Definition


TIME
00:00 Legend Double Dagger 0.5 -1.0 90 2 38 16.1 100.31     Freezing Rain,Snow
01:00 Legend Double Dagger 0.5 -0.5 93 3 29 24.1 100.25     Freezing Rain,Snow
02:00 Legend Double Dagger 0.8 -0.5 91 3 29 24.1 100.19     Freezing Rain,Snow
03:00 Legend Double Dagger 0.7 -0.6 91 3 29 24.1 100.13     Freezing Rain,Snow
04:00 Legend Double Dagger 0.6 -0.4 93 2 30 24.1 100.08     Freezing Rain,Snow
05:00 Legend Double Dagger 0.7 -0.3 93 2 31 24.1 100.03     Freezing Rain,Snow
06:00 Legend Double Dagger 0.8 -0.2 93 2 28 24.1 99.98     Freezing Rain,Snow
07:00 Legend Double Dagger 1.2 -0.7 87 2 33 24.1 99.90     Freezing Rain
08:00 Legend Double Dagger 0.9 -0.1 93 2 31 8.1 99.83     Freezing Rain,Fog
09:00 Legend Double Dagger 1.2 0.1 92 3 35 9.7 99.74     Rain,Fog
10:00 Legend Double Dagger 1.5 0.0 90 3 31 9.7 99.69     Rain,Fog
11:00 Legend Double Dagger 1.5 0.2 91 5 34 24.1 99.66     Rain
12:00 Legend Double Dagger 1.8 0.3 90 6 40 24.1 99.68     Rain
13:00 Legend Double Dagger 1.7 0.5 92 7 36 24.1 99.71     LegendNANA
14:00 Legend Double Dagger 2.0 1.6 97 10 36 8.1 99.87     Drizzle,Fog
15:00 Legend Double Dagger 1.7 1.0 95 11 32 24.1 100.03     Cloudy
16:00 Legend Double Dagger 1.7 1.1 96 11 29 16.1 100.21     LegendNANA
17:00 Legend Double Dagger 2.3 1.6 95 9 25 32.2 100.34     LegendNANA
18:00 Legend Double Dagger 2.3 1.6 95 9 23 32.2 100.46     Cloudy
19:00 Legend Double Dagger 2.2 1.6 96 9 24 24.1 100.58     LegendNANA
20:00 Legend Double Dagger 1.9 1.0 94 12 27 24.1 100.67     Rain Showers
21:00 Legend Double Dagger 1.5 0.8 95 12 18 24.1 100.74     Mostly Cloudy
22:00 Legend Double Dagger 1.9 0.9 93 9 16 24.1 100.82     LegendNANA
23:00 Legend Double Dagger 1.9 1.2 95 8 20 24.1 100.87     LegendNANA

Notes on Data Quality.

Legend

  • E = Estimated
  • M = Missing
  • NA = Not Available
  • ‡ = Partner data that is not subject to review by the National Climate Archives
Date modified: